This demonstration page uses our WeatherBlox Daily Observations layout. Learn more.

Left ArrowRight Arrow

Hourly Observations for May 15, 2015

Temp ( °F °C ) Dew Point ( °F °C ) Humidity (%) Winds ( mph kmh ) Pressure ( in mb ) Visibility ( mi km ) Precip ( " mm )
12:51 am 00:51 Cloudy with Light Rain 62 16.7 43 6.1 50 50 NNW 10 17 29.73 1007 10 16 0.00 0.03
1:51 am 01:51 Partly Cloudy 61 16.1 42 5.6 50 50 NNW 9 15 29.72 1007 10 16 0.00 0.03
2:51 am 02:51 Mostly Cloudy 60 15.6 41 5 50 50 NNW 7 11 29.72 1007 10 16 0.00 0.00
3:51 am 03:51 Mostly Clear 61 16.1 40 4.4 46 46 NW 5 7 29.71 1006 10 16 0.00 0.00
4:51 am 04:51 Clear 58 14.4 40 4.4 51 51 Calm 29.72 1007 10 16 0.00 0.00
5:51 am 05:51 Sunny 58 14.4 36 2.2 44 44 WNW 8 13 29.74 1007 10 16 0.00 0.00
6:51 am 06:51 Sunny 59 15 37 2.8 44 44 W 10 17 29.75 1008 10 16 0.00 0.00
7:51 am 07:51 Sunny 64 17.8 37 2.8 37 37 NW 8 13 29.75 1008 10 16 0.00 0.00
8:51 am 08:51 Sunny 66 18.9 38 3.3 36 36 W 12 19 29.76 1008 10 16 0.00 0.00
9:51 am 09:51 Sunny 67 19.4 39 3.9 36 36 W 6 9 29.75 1008 10 16 0.00 0.00
10:51 am 10:51 Sunny 70 21.1 38 3.3 31 31 W 5 7 29.75 1007 10 16 0.00 0.00
11:51 am 11:51 Sunny 70 21.1 38 3.3 31 31 WNW 9 15 29.73 1007 10 16 0.00 0.00
12:51 pm 12:51 Sunny 69 20.6 37 2.8 31 31 WNW 21 33 29.72 1006 10 16 0.00 0.00
1:51 pm 13:51 Sunny 72 22.2 37 2.8 28 28 NW 14 22 29.70 1006 10 16 0.00 0.00
2:51 pm 14:51 Mostly Sunny 72 22.2 36 2.2 27 27 WNW 17 28 29.67 1005 10 16 0.00 0.00
3:51 pm 15:51 Cloudy 68 20 37 2.8 32 32 NW 23 37 29.67 1005 10 16 0.00 0.00
4:51 pm 16:51 Mostly Sunny 70 21.1 36 2.2 29 29 NW 22 35 29.68 1005 10 16 0.00 0.03
5:51 pm 17:51 Mostly Sunny 70 21.1 36 2.2 29 29 NW 12 19 29.67 1005 10 16 0.00 0.00
6:51 pm 18:51 Mostly Cloudy 67 19.4 35 1.7 31 31 NNW 8 13 29.68 1005 10 16 0.00 0.00
7:51 pm 19:51 Mostly Cloudy 66 18.9 36 2.2 33 33 NW 7 11 29.69 1005 10 16 0.00 0.00
8:51 pm 20:51 Mostly Clear 62 16.7 41 5 46 46 NW 20 31 29.70 1006 10 16 0.00 0.00
9:51 pm 21:51 Clear 61 16.1 40 4.4 46 46 N 6 9 29.72 1006 10 16 0.00 0.00
10:51 pm 22:51 Mostly Clear 57 13.9 43 6.1 60 60 WSW 9 15 29.72 1006 10 16 0.00 0.00
11:51 pm 23:51 Cloudy 57 13.9 43 6.1 60 60 W 7 11 29.71 1006 10 16 0.00 0.00

Powered by AerisWeather